Погода Тас-Тумус

Погода Тас-Тумус : погода сейчас, прогноз погоды и архив. Всё, что Вы хотите узнать о погоде Тас-Тумус!

Поиск расширенной информации на нашем сайте:

Другие новости

Новости СМИ2

Главная страница сайта

Новости сайта

03.07.2017

Напоминаем, что на нашем специализированном сайте Метеоцентр.Азия вы можете получить высокодетализированные автоматические прогнозы погоды по пунктам России, СНГ и мира в авиационном формате (включающие направление и скорость ветра, видимость, явления погоды, количество и форму облачности, нижнюю и верхнюю границу облачности).


Погода Тас-Тумус - сегодня

Время (UTC), дата Ветер
(°,м/с) 
Видим.   Явления Облачность Т
(°С)
Тd
(°С)
f(%) Тe
(°С)
Pmin
(гПа)
dP
(гПа)
Po
(мм)
O2
(г/м3)
Тmin Tmax R s Состояние
почвы
03 19.11.17 тихо ()   20000 м    8/0 верхняя 
[Cs]
-32.6 -34.2 86 -33  1025.8  0.1  760  350           
06 19.11.17 тихо ()   20000 м    4/0 верхняя 
[Ci fib]
-32.8 -34.5 85 -33  1025.8  760  350           
09 19.11.17 тихо ()   20000 м    ясно 
-37 -38.5 86 -37  1026  760  356           
12 19.11.17 тихо ()   20000 м    ясно 
-37.1 -38.9 83 -37  1024.9  -1  759  356    -31.9       
15 19.11.17 тихо ()   20000 м    ясно 
-38.6 -40.2 85 -39  1022.4  -2.6  757  358           
18 19.11.17 310 (СЗ) 20000 м    ясно 
-38 -39.7 84 -39  1018.2  -4.2  754  355           
21 19.11.17 310 (СЗ) 20000 м    3/0 верхняя 
[Ci fib]
-37.5 -39.3 83 -39  1016.1  -1.9  753  354           
00 20.11.17 320 (СЗ) 20000 м    3/0 верхняя 
[Ci fib]
-37.9 -39.3 86 -39  1012.6  -3.5  750  353  -39      35  равномерный
сухой снег
100% 
03 20.11.17 320 (СЗ) 20000 м    ясно 
-36.8 -38.5 84 -38  1010  -2.6  748  350           
06 20.11.17 320 (СЗ) 20000 м    ясно 
-36 -37.8 83 -37  1008.7  -1.2  747  349           
09 20.11.17 320 (СЗ) 20000 м    ясно 
-37.6 -40.2 76 -39  1007.4  -0.6  746  351           
12 20.11.17 320 (СЗ) 20000 м    3/0 верхняя 
[Ci fib]
-37 -38.5 86 -38  1006  -1.3  745  349    -36       
15 20.11.17 тихо ()   20000 м    8/0 верхняя 
[Ci fib]
-36.4 -38.2 84 -36  1005.6  -0.4  745  348           
18 20.11.17 тихо ()   20000 м    10/0 средняя, верхняя 
[As trans|Cs]
-35.9 -37.5 85 -36  1006.1  0.6  745  348           
21 20.11.17 110 (В) 20000 м    10/0 средняя 
[As trans]
-35.1 -36.8 84 -36  1006.3  745  347           
00 21.11.17 110 (В) 20000 м    10/0 средняя, верхняя 
[As trans|Cs]
-35.3 -37.1 83 -40  1006.4  0.3  746  347  -39.2      35  равномерный
сухой снег
100% 
03 21.11.17 110 (В) 10 км  слаб. снег  10/0 средняя 
[As op]
-34.1 -35.9 84 -40  1006.9  0.5  746  345           
06 21.11.17 120 (ЮВ) 10 км  слаб. снег  10/0 средняя 
[As op]
-32.8 -34.5 85 -40  1007.7  0.9  747  344           
09 21.11.17 120 (ЮВ) 20000 м  {снег}  10/0 средняя 
[As trans]
-33 -34.8 84 -39  1008.5  0.8  747  344           
12 21.11.17 140 (ЮВ) 10 км  слаб. снег  10/0 средняя 
[As op]
-32.2 -34 84 -33  1009.5  748  344    -32.2     
15 21.11.17 130 (ЮВ) 10 км  слаб. снег  10/0 средняя 
[As op]
-31.7 -33.5 84 -36  1010.1  0.6  749  343           
18 21.11.17 120 (ЮВ) 20000 м  {снег}  10/0 средняя 
[As trans]
-31.1 -33.4 80 -32  1010.4  0.3  749  342           
21 21.11.17 тихо ()   20000 м    10/0 средняя 
[As trans]
-30.5 -33 79 -31  1010.9  0.5  749  342           
00 22.11.17 тихо ()   20000 м    10/0 средняя 
[As trans]
-30.1 -32.6 79 -30  1011.5  0.6  750  341  -32.2    0.2  36  равномерный
сухой снег
100% 
03 22.11.17 тихо ()   20000 м    10/0 средняя 
[As trans]
-29.5 -32 79 -30  1012.5  1.1  750  341           
Время (UTC), дата Ветер
(°,м/с) 
Видим.   Явления Облачность Т
(°С)
Тd
(°С)
f(%) Тe
(°С)
Pmin
(гПа)
dP
(гПа)
Po
(мм)
O2
(г/м3)
Тmin Tmax R s Состояние
почвы

Для получения пояснительной информации подведите курсор к названию столбца.

ПОГОДА Тас-Тумус - архив

Всё, что Вы хотите узнать о погоде Тас-Тумус - удобно и подробно!

Выберите нужную дату (начиная с 1 января 2015* года) и нажмите кнопку "Найти".
Будут отображены архивные сводки погоды по пункту Тас-Тумус, начиная с указанной даты.


Отображать данные в формате CSV (для использования в таблицах Excel)


Внимание! Наш архив погоды предназначен исключительно для личного некоммерческого использования в познавательных целях. Если Вам необходимы официальные справки о состоянии погоды (для производственных, юридических, коммерческих и т.п. целей), обращайтесь в органы Росгидромета.

*Примечание: данная дата относится к архиву по метеостанциям СССР (Россия, СНГ, Балтия).
Архив по метеостанциям Зарубежной Европы и Азии (кроме Китая) хранится 10 дней, по другим регионам земного шара (Китай, Африка, Америка, Австралия, Океания) - 1 день.

Тас-Тумус - район местоположения метеостанции


Название, широта, долгота, высота метеостанции:
Тас-Тумус 64.2°ш. 126.6°д. 76 м над ур. моря [Российская Федерация]

Дополнительная информация

В oтличие oт бoльшинства пoгoдных сайтoв мы публикуем пoдрoбную метеoинфoрмацию в детальнoм прoфессиoнальнoм фoрмате.

Характеристики температуры и влажнoсти вoздуха измеряются на высoте 2 м в тени вдали oт зданий и деревьев.
Скoрoсть ветра измеряется на высoте 10 м (на урoвне рoста челoвека скoрoсть ветра ниже в 1.5-2 раза). Если метеoстанция нахoдится в гoрoде или в лесу, тo скoрoсть ветра занижена на 2-4 м/с пo сравнению с oткрытым местoм. Скoрoсть ветра над акватoриями крупных рек и oзёр, а также на вершинах хoлмoв на 2-5 м/с выше, чем в oбычных услoвиях.
Атмoсфернoе давление в разных тoчках местнoсти мoжет значительнo oтличаться oт давления на метеoстанции, в зависимoсти oт услoвий рельефа (при пoдъёме на 10 м давление пoнижается примернo на 1 мм рт.ст.).